Lapse_Rate
6.5 6.5 6.5 6.5 6.5 6.5 6.5 6.5 6.5 6.5 6.5 6.5 6.5 6.5 6.7 5.7 5.0 5.0 4.3 4.0 4.1 4.6 3.9 3.3 3.3 2.6 1.9 1.5 1.7 1.6 1.6 2.2 2.3 2.7 2.6 2.7 3.1 2.4 2.9 3.6 5.5 4.8 6.2 5.4
6.5 6.5 6.5 6.5 6.5 6.5 6.5 6.5 6.5 6.5 6.5 6.5 6.7 6.7 6.7 6.1 5.8 5.8 4.4 3.2 2.4 2.6 3.4 3.4 2.9 2.3 1.5 1.6 1.8 2.5 2.6 2.5 2.4 1.8 2.6 2.5 3.4 4.4 5.7 4.2 6.2 5.6 5.1 5.6
6.5 6.5 6.5 6.5 6.5 6.5 6.5 6.5 6.5 6.5 6.5 6.5 6.5 6.6 6.8 6.9 5.7 5.1 3.5 2.0 0.8 0.3 0.1 0.3 0.7 1.0 1.1 1.4 2.0 2.5 3.0 3.2 3.2 3.5 3.8 4.4 4.7 5.1 6.6 6.2 5.9 5.1 4.9 5.2
6.5 6.5 6.5 6.5 6.5 6.5 6.5 6.5 6.5 6.5 6.5 6.5 6.7 6.9 5.6 5.0 5.0 3.5 2.3 0.8 -0.3 -0.5 -0.8 -0.5 0.0 0.4 1.1 2.4 3.0 3.7 4.2 4.3 4.9 4.8 4.4 6.1 6.9 6.0 5.4 4.9 5.1 5.2 6.0 6.7
6.5 6.5 6.5 6.5 6.5 6.5 6.5 6.5 6.5 6.5 6.5 6.8 7.0 7.0 6.8 3.5 2.6 1.7 0.5 -0.5 -1.0 -0.8 -0.6 0.1 0.9 1.7 2.1 3.1 4.3 4.7 4.6 5.2 5.8 6.0 5.7 5.4 5.4 5.2 5.0 6.3 6.5 6.8 6.5 6.2
6.5 6.5 6.5 6.5 6.5 6.4 6.5 6.5 6.5 6.6 6.5 6.6 6.9 6.5 6.5 3.9 2.4 1.2 0.8 0.7 0.4 0.7 1.4 1.3 2.1 3.6 3.5 4.8 5.4 5.6 5.7 5.9 5.8 6.0 5.7 4.9 5.0 6.7 6.3 6.3 6.0 6.1 5.9 6.0
6.5 6.5 6.5 6.5 6.5 5.7 6.5 6.5 6.0 6.6 6.8 6.9 6.5 5.6 3.5 2.8 2.5 2.2 2.1 1.7 1.9 2.4 1.9 2.8 4.3 4.6 4.5 5.6 5.6 6.4 6.5 6.0 4.9 4.8 5.2 5.7 5.7 5.4 5.3 5.6 5.2 5.2 5.0 5.7
6.5 6.5 6.5 6.5 6.3 6.5 6.3 4.2 3.9 6.0 6.2 6.6 2.0 2.3 2.5 3.0 2.8 3.2 2.8 3.4 3.5 2.9 3.7 4.8 5.4 4.8 5.3 4.8 5.6 5.8 5.5 4.8 4.5 4.6 4.8 4.9 5.0 5.2 5.4 5.5 5.3 5.3 4.3 5.2
6.5 6.5 6.5 5.5 5.4 3.9 2.8 4.1 3.4 4.8 4.6 2.2 1.9 3.7 3.4 3.2 3.4 3.7 3.8 4.0 4.3 3.6 4.1 4.8 5.1 5.2 4.3 4.4 5.1 4.7 4.4 4.1 4.2 4.3 4.3 4.4 4.9 4.9 5.2 5.2 5.0 5.0 5.4 5.3
6.5 6.5 6.5 5.1 4.1 3.2 3.2 3.3 2.2 4.3 2.6 1.4 1.5 3.2 3.7 3.9 4.0 4.2 4.7 4.6 4.5 4.1 3.8 3.7 3.9 3.4 3.1 3.7 4.4 4.4 4.0 3.7 3.8 3.8 3.9 4.0 4.4 4.6 4.8 4.7 4.7 5.3 5.9 6.2
6.5 6.5 6.5 5.7 3.6 3.0 2.2 1.3 1.2 2.6 1.6 1.3 0.2 2.9 2.8 3.8 4.4 4.8 4.9 4.9 4.7 3.9 3.5 3.1 2.9 2.2 2.8 3.5 4.3 4.0 3.5 3.3 3.2 2.9 2.9 3.4 3.7 3.8 4.1 4.9 4.8 5.3 6.9 8.6
6.5 5.8 5.6 5.1 2.1 0.2 1.4 1.1 1.2 0.1 0.7 1.7 0.8 0.9 3.3 4.3 4.7 4.9 4.7 4.8 4.3 3.5 2.6 2.3 2.1 2.0 2.6 3.0 3.4 3.4 3.1 2.9 1.9 2.5 2.7 3.3 3.7 4.3 3.7 3.8 4.6 5.3 6.1 6.6
6.1 2.1 0.5 -1.1 -0.3 0.6 0.9 0.5 0.3 0.5 -0.7 -0.1 2.3 2.1 3.0 3.6 4.6 4.1 4.5 4.3 3.6 2.6 2.0 2.0 2.4 2.0 2.0 2.0 2.1 2.0 2.3 2.3 2.4 2.4 3.1 3.3 3.6 4.2 4.5 5.2 4.9 5.1 5.4 5.6
1.3 1.5 3.7 2.1 2.8 0.6 0.1 0.1 0.4 0.3 0.6 0.6 0.8 2.4 2.6 3.1 4.3 4.2 4.1 3.3 2.8 2.1 2.3 2.6 2.1 1.5 1.4 2.0 2.0 1.8 1.8 0.6 2.3 2.9 3.3 3.4 3.6 3.8 4.4 4.7 5.0 5.4 5.3 5.1
2.2 1.2 2.2 -0.3 -1.1 1.3 0.3 0.3 0.8 0.7 0.8 1.6 2.5 2.5 3.3 4.1 4.0 3.3 3.2 2.9 2.6 2.5 2.4 2.4 1.8 1.1 1.4 1.9 2.2 2.1 2.4 2.3 2.3 2.7 2.8 2.7 3.3 3.5 4.1 4.2 4.3 4.5 4.7 4.6
0.3 2.0 1.3 1.4 0.1 1.2 1.6 2.0 0.1 1.4 2.1 2.3 2.9 3.6 3.7 2.9 2.7 2.8 2.7 2.8 2.6 2.0 1.8 -0.1 0.9 1.2 1.4 1.8 2.1 2.4 2.4 1.2 1.6 2.6 2.7 2.8 3.0 3.4 3.6 4.0 4.0 4.0 4.2 4.2
2.9 4.4 2.6 1.8 2.1 2.1 2.9 2.5 1.2 1.5 2.5 3.5 3.2 2.7 2.8 2.9 3.1 3.3 2.3 1.5 0.4 0.1 0.3 0.6 0.9 1.4 1.3 1.6 1.7 1.9 2.1 2.1 0.8 2.6 2.6 2.4 2.6 3.1 3.3 3.5 3.5 3.8 3.9 3.6
2.9 2.0 2.8 2.9 3.5 3.4 3.6 2.8 2.7 3.8 4.2 3.4 3.4 3.1 3.2 3.6 3.2 1.6 0.8 0.5 0.2 0.2 0.8 0.8 1.1 1.0 0.8 1.2 1.3 1.3 1.2 1.4 1.8 1.8 2.0 1.7 1.6 2.4 2.7 2.7 3.0 3.3 3.3 3.4
3.2 1.8 2.9 3.1 3.4 3.1 3.3 3.9 4.2 2.7 2.1 2.5 3.2 3.2 3.3 1.8 1.5 0.9 0.7 0.5 0.4 1.0 0.9 1.0 0.6 0.7 0.9 0.7 1.2 0.8 0.8 0.6 1.3 1.4 1.2 0.7 1.3 1.6 2.1 2.3 2.5 2.8 2.9 3.0
3.2 4.2 3.4 2.6 3.5 3.1 3.3 3.3 2.8 2.6 2.9 2.6 2.6 3.0 1.7 0.8 0.4 -0.1 0.6 1.5 2.4 2.4 1.7 1.3 1.3 1.2 1.1 0.5 0.5 1.2 0.7 0.6 1.0 1.0 0.8 0.9 0.8 1.0 1.5 1.5 1.6 2.2 2.5 2.8
3.0 3.8 3.4 3.0 3.4 2.8 2.4 2.6 2.3 2.5 2.6 2.7 3.3 1.7 1.4 0.8 0.6 0.4 1.2 2.3 2.0 2.0 2.0 1.5 1.8 1.7 1.4 1.2 1.2 0.6 0.5 0.8 0.8 0.9 0.4 0.3 0.5 1.1 1.3 1.4 1.6 1.9 2.2 2.4
3.7 3.1 3.1 3.0 2.9 3.0 2.8 2.5 2.1 2.0 2.8 1.9 1.5 2.0 1.9 1.2 1.1 1.8 2.4 3.8 3.1 2.0 2.7 2.5 2.2 0.2 1.1 0.8 1.6 1.1 1.6 1.2 1.2 1.0 1.1 1.0 1.0 0.9 1.0 1.1 1.2 1.5 1.8 1.8
3.3 3.3 3.4 3.1 2.8 2.8 2.7 2.8 3.2 3.0 2.3 2.0 2.3 2.8 2.6 2.4 3.0 3.6 3.5 3.2 3.4 2.5 3.4 3.1 1.0 -0.3 -1.0 1.4 1.5 1.4 1.4 1.1 1.3 1.2 1.1 0.9 0.8 0.8 0.8 0.8 0.5 0.8 1.1 1.4
3.6 3.4 3.1 2.8 2.8 3.6 4.0 4.2 3.0 2.3 2.4 3.3 2.4 2.7 3.3 3.0 2.9 3.4 3.4 2.3 2.1 3.3 3.3 2.3 1.7 -0.1 -0.5 1.5 1.7 1.8 1.8 1.9 1.7 1.6 1.9 -1.4 1.2 0.6 0.8 0.1 -0.0 0.3 0.2 0.5
4.2 4.2 4.2 4.0 3.7 3.8 3.5 3.6 4.2 5.2 5.1 4.3 4.2 4.1 4.1 3.7 4.6 3.4 3.3 3.2 2.8 3.7 3.5 0.7 0.4 -0.8 1.7 1.9 2.1 2.3 2.5 2.5 2.5 2.0 2.2 1.7 1.3 0.5 0.4 -0.0 -0.8 -0.5 -0.5 0.1
3.3 3.5 3.6 3.8 4.2 4.2 4.4 4.7 4.4 4.7 4.9 4.3 3.6 3.4 3.2 3.3 3.3 3.7 3.3 3.2 3.5 2.7 3.6 1.8 1.6 1.7 2.2 2.8 2.9 2.9 3.1 3.5 3.3 2.8 1.6 1.6 1.0 0.5 -0.2 -0.9 -1.4 -1.1 -0.8 -0.4
3.2 3.5 3.7 3.6 3.8 3.9 4.3 4.6 4.5 4.0 4.1 4.4 4.3 3.5 3.4 3.4 3.2 3.6 2.8 3.4 3.2 2.9 2.6 2.3 2.4 2.3 3.1 3.3 3.5 3.8 3.7 3.9 2.4 2.6 2.0 1.2 0.5 0.0 -1.0 -1.7 -2.0 -2.1 -1.9 -1.4
Wind_Speed
5 5 6 6 6 11 10 7 8 8 9 9 6 6 4 5 4 5 7 6 5 2 3 2 3 4 5 6 7 8 9 9 9 9 9 10 10 9 8 8 8 6 6 3
4 4 7 6 5 8 10 4 9 7 6 9 2 2 1 3 6 8 9 9 10 9 8 5 6 7 7 7 8 8 10 10 10 11 12 11 10 11 12 8 10 5 4 2
5 2 3 3 8 10 6 5 7 8 11 6 6 6 6 6 8 8 8 8 10 10 10 9 9 9 11 11 11 13 13 13 13 13 13 11 10 9 8 5 1 1 3 4
3 1 5 2 2 3 8 5 9 5 4 6 4 6 6 3 8 8 8 9 9 9 10 11 12 13 13 14 14 15 15 14 13 12 10 9 7 5 3 2 1 4 7 9
4 4 4 1 4 7 7 15 9 13 7 6 12 8 3 4 6 8 8 8 9 9 11 12 13 13 15 15 16 17 14 12 10 8 8 6 5 2 1 3 4 5 6 8
3 5 8 6 4 5 4 12 9 11 11 17 12 8 6 8 7 9 9 9 10 11 12 13 12 14 16 16 16 14 11 10 8 7 7 6 4 2 2 3 5 5 7 7
3 4 6 6 4 5 5 10 5 12 13 18 10 1 11 13 10 10 11 12 12 13 14 14 14 15 16 14 12 10 10 9 9 8 8 6 5 4 5 5 6 7 8 9
3 2 7 8 6 9 7 3 5 10 12 13 11 14 15 13 13 13 15 14 15 15 14 13 13 14 14 13 10 9 10 10 9 9 7 6 6 5 6 7 7 8 8 9
9 7 2 10 4 6 5 4 6 11 11 15 17 12 15 15 15 14 15 14 14 15 15 12 12 12 13 9 9 10 11 10 8 8 7 7 7 7 6 7 7 8 8 10
3 5 7 7 4 4 4 4 5 9 17 18 16 18 17 15 15 14 14 15 14 16 15 13 12 12 11 9 9 10 10 8 7 7 7 7 5 6 6 6 7 8 9 10
4 5 2 9 11 5 5 5 10 11 11 15 21 18 19 17 16 15 14 13 13 14 13 13 12 11 10 9 8 8 8 7 7 6 7 6 6 6 6 6 8 8 8 10
7 8 6 7 11 11 11 11 14 16 14 14 17 20 19 16 14 15 14 14 13 13 14 12 11 11 10 9 8 7 7 5 5 4 5 5 5 5 6 7 9 10 14 11
4 3 2 4 5 7 8 13 11 13 16 19 16 17 18 16 15 16 14 14 14 13 12 11 11 11 9 8 8 8 6 5 4 5 5 5 6 6 7 6 10 9 13 16
4 8 2 4 4 8 14 14 16 15 14 14 17 16 16 16 15 15 14 14 14 13 12 11 10 10 8 7 7 7 6 8 5 5 5 5 6 6 6 7 8 8 11 14
5 3 1 11 16 12 15 16 17 16 16 15 14 17 17 18 16 15 14 14 13 13 11 10 9 8 6 6 6 7 5 5 4 4 4 5 5 5 6 7 8 8 9 10
7 7 9 9 16 16 15 15 18 15 16 16 16 16 16 15 15 14 13 13 12 10 10 8 8 7 6 5 5 5 5 7 5 4 4 5 5 5 6 7 8 8 9 10
9 7 11 13 14 16 14 12 14 15 14 16 16 17 18 16 14 14 12 11 11 10 9 8 8 7 6 6 5 4 3 4 5 4 4 5 5 5 5 6 7 7 8 9
5 7 5 12 13 14 13 13 14 15 15 15 13 13 15 14 14 13 13 12 10 10 8 7 7 7 7 6 5 4 4 3 3 4 4 4 5 5 5 6 7 8 8 9
7 14 13 14 13 14 14 14 13 14 15 15 15 13 11 12 14 13 12 10 9 9 7 7 8 7 7 6 5 4 3 4 3 4 4 4 4 5 5 6 7 8 8 9
14 11 15 16 14 14 14 12 14 14 12 13 12 11 12 11 11 10 9 8 6 6 8 8 7 6 5 6 5 4 4 4 4 3 3 4 4 5 5 6 7 7 8 8
13 13 14 15 14 13 12 13 14 13 11 10 11 10 10 10 9 9 9 6 6 8 8 7 5 4 3 3 3 3 3 3 3 3 3 3 4 5 6 6 7 7 7 8
9 11 12 13 14 14 11 12 13 12 11 10 9 10 11 10 8 5 4 5 6 7 5 4 4 4 3 3 3 2 1 2 2 2 2 3 4 5 6 6 7 7 7 8
11 12 13 13 13 13 12 11 10 10 9 9 9 9 7 6 5 5 4 5 5 5 4 3 5 4 4 2 1 1 0 0 1 2 2 3 4 5 5 6 7 7 7 8
13 13 14 13 13 13 13 10 10 10 9 9 8 7 8 6 4 4 6 6 6 5 3 3 4 3 2 1 0 1 2 2 2 2 3 3 4 4 5 6 6 7 7 8
13 13 12 11 12 9 12 12 11 10 10 10 8 7 6 3 2 4 4 4 5 3 3 3 3 3 2 1 1 2 3 3 3 3 4 4 4 5 6 6 6 7 7 7
13 10 10 13 9 8 7 7 7 6 6 5 4 3 3 3 5 5 4 4 3 2 2 1 1 1 1 1 2 3 4 4 4 4 4 4 5 5 6 6 7 7 7 8
12 13 9 10 8 8 7 7 6 5 4 4 3 2 3 3 4 4 4 2 2 1 2 1 0 1 1 2 3 4 3 4 5 4 4 4 4 5 5 7 8 10 11 11
Wind_Direction
225 220 186 200 192 177 199 207 195 237 208 249 253 254 280 307 344 67 68 60 70 116 130 137 118 105 103 110 120 126 122 121 122 122 118 119 117 105 102 106 124 120 135 137
195 165 194 221 206 197 212 214 244 245 246 233 240 156 23 91 103 93 85 77 74 74 84 92 90 88 85 88 94 104 102 102 101 95 98 95 97 103 100 92 105 124 165 203
221 160 167 310 206 192 192 194 199 208 226 168 193 182 147 124 111 104 92 80 77 75 75 79 86 99 97 99 98 96 98 100 98 99 98 98 100 99 96 93 94 359 308 259
156 153 221 232 73 183 221 237 224 260 232 206 167 115 101 68 126 114 104 94 83 83 85 87 94 97 102 102 101 102 100 99 98 96 94 94 86 88 102 108 227 241 258 265
156 202 299 215 194 177 183 253 214 227 203 147 136 126 86 72 93 110 107 97 93 93 96 97 99 105 102 100 103 103 98 94 92 91 92 89 91 87 183 247 275 279 281 285
150 177 221 197 215 150 125 279 202 191 176 159 161 173 169 156 130 112 103 102 105 104 104 99 99 104 103 104 104 99 97 94 91 93 94 87 81 34 4 330 313 311 304 299
159 215 280 244 159 149 162 257 201 190 171 165 180 97 131 136 122 113 115 115 112 104 99 99 105 104 99 96 90 93 96 91 78 64 63 53 43 27 0 341 326 318 309 306
112 135 258 154 109 177 209 177 185 176 170 159 126 127 130 131 129 129 124 118 112 105 100 98 102 101 97 92 95 91 84 76 67 61 57 46 35 19 5 356 336 327 320 315
192 203 192 198 200 186 167 160 188 166 155 141 139 145 142 140 139 135 128 119 115 109 100 88 87 95 97 91 95 91 83 74 65 59 47 35 25 13 360 355 347 337 330 325
131 206 219 217 227 229 197 208 175 170 153 153 149 149 144 142 140 133 129 123 120 112 104 96 87 82 83 87 90 88 82 69 54 46 29 28 23 17 4 358 349 343 338 331
279 270 323 252 231 205 189 147 125 133 152 154 143 148 145 144 142 135 129 124 119 113 107 98 92 81 73 73 85 85 78 63 48 38 26 20 23 14 7 5 353 342 345 340
215 208 196 230 196 165 165 172 157 140 130 145 147 144 143 138 136 133 128 125 116 111 108 104 94 84 73 66 66 71 68 55 41 33 25 18 10 360 36 356 344 344 355 347
228 140 88 83 89 136 140 142 138 135 139 137 138 137 135 130 132 126 125 123 121 117 112 106 95 82 68 64 64 65 67 53 46 34 23 13 4 357 349 0 356 349 350 347
154 124 116 192 177 133 124 116 111 111 118 123 128 128 127 125 124 126 125 122 119 114 109 106 94 79 64 67 74 75 73 52 42 30 21 12 6 358 350 350 346 346 347 348
169 351 31 121 115 119 122 125 122 125 126 125 128 130 132 133 130 126 126 123 118 112 109 104 94 84 71 71 74 67 58 47 33 25 26 16 8 357 353 346 346 339 340 348
127 129 134 145 134 143 141 137 131 141 138 138 136 136 130 121 119 120 125 129 128 120 110 103 98 88 74 69 76 68 67 49 33 25 17 14 7 356 354 350 345 343 341 343
127 152 149 159 158 153 154 139 138 144 140 139 134 129 124 119 115 119 115 110 107 109 113 110 103 92 77 69 68 62 51 45 26 26 22 13 360 356 350 347 339 336 333 336
151 122 140 148 145 133 128 130 132 133 127 122 114 118 119 122 129 128 124 121 112 106 104 101 102 94 76 68 64 58 55 34 29 28 13 11 359 353 348 343 335 331 330 331
121 117 128 128 131 126 127 129 126 118 120 122 125 127 123 120 128 129 131 128 128 127 122 115 105 94 87 76 76 67 60 44 38 37 12 5 359 354 347 340 334 328 329 327
101 110 113 109 113 117 111 108 110 108 113 116 115 117 115 117 123 125 131 122 123 123 130 120 113 104 101 89 75 78 66 51 33 25 23 5 0 348 339 332 327 325 324 324
95 103 103 103 104 102 108 115 113 110 109 119 126 126 122 124 120 124 128 128 126 129 121 124 119 116 104 113 105 92 77 53 31 12 6 359 343 342 333 330 325 321 318 322
97 100 100 103 103 98 94 99 103 107 110 103 101 112 120 126 127 96 61 124 133 136 133 126 122 111 118 142 104 114 83 49 20 352 348 344 338 333 329 326 321 319 317 320
88 92 94 94 94 92 87 88 94 108 106 105 113 118 121 129 134 134 132 123 126 131 121 116 125 130 124 111 106 119 168 315 334 325 314 323 326 324 320 317 316 315 316 320
87 86 90 95 100 94 94 88 87 83 85 89 87 94 119 120 88 70 99 108 111 122 116 132 138 117 114 98 65 310 273 270 285 300 288 287 305 313 314 315 312 317 314 314
82 84 84 87 88 90 97 99 95 94 93 91 90 87 98 74 98 131 117 109 122 133 133 134 135 117 83 44 323 316 302 272 270 284 278 285 300 309 312 314 310 314 312 311
67 68 68 66 77 87 92 94 93 92 99 97 81 79 84 87 106 117 115 113 110 107 87 123 134 100 41 326 314 307 305 285 269 274 268 276 294 304 310 313 311 312 310 309
61 60 65 61 49 54 62 75 87 78 68 69 91 108 121 123 122 123 117 112 94 67 44 38 353 285 275 297 303 308 297 290 278 280 276 276 288 301 307 308 307 307 307 307